Weather in Qubadli

Azerbaijan     39˚20′31″N   46˚34′56″E
temp.,
°C
wind,
m/s
gust,
m/s
humid.,
%
clouds,
%
prec.,
mm/h
press.,
hPa
HPBL,
m
1 december, tue
tue101:00+1˚e119580 0.0 102455
04:00+1˚e119387 0.0 102483
07:00+1˚e119586 0.0 102451
10:00+3˚ene118078 0.0 1024300
13:00+6˚ese216722 0.0 1022472
16:00+6˚ese227211 0.0 1021463
19:00+2˚sse129329 0.0 102435
22:00+2˚ese019255 0.0 102473
2 december, wed
wed201:00+2˚wnw118734 0.0 102557
04:00+1˚wnw117819 0.0 102522
07:00+1˚nw00800 0.0 102622
10:00+4˚ene11690 0.0 1026140
13:00+7˚e21640 0.0 1024397
16:00+6˚ese21709 0.0 1023379
19:00+2˚sse0194100 0.0 102528
22:00+3˚ese1193100 0.0 102687
3 december, thu
thu301:00+3˚ese1192100 0.0 102791
04:00+3˚se1192100 0.0 102787
07:00+3˚se1191100 0.0 102880
10:00+4˚e1184100 0.0 1029236
13:00+5˚ese217590 0.0 1027504
16:00+5˚ese227387 0.0 1026539
19:00+3˚se2294100 0.0 1028190
22:00+3˚ese2296100 0.1 1028138
4 december, fri
fri401:00+3˚se2295100 0.0 1028135
04:00+2˚se119694 0.0 102791
07:00+1˚sse019388 0.0 102782
10:00+3˚ene118183 0.0 1028223
13:00+5˚ese227286 0.0 1025561
16:00+4˚ese228177 0.1 1024422
19:00+3˚ese2296100 0.1 1025168
22:00+3˚e1195100 0.1 1026121
5 december, sat
sat501:00+2˚e1195100 0.0 102565
04:00+2˚e009497 0.0 102491
07:00+1˚wnw019373 0.0 102448
10:00+3˚ne117976 0.0 1024241
13:00+5˚ese327141 0.0 1022579
16:00+5˚ese228261 0.0 1021353
19:00+3˚ese2293100 0.0 1023161
22:00+3˚ese1192100 0.0 1024134